Find Starlink 30524

NORAD ID: 57965 Int'l Des: 2023-151 Owner: SPXS Country: US Constellation: starlink operational
LEOCIRCULAR

現在のビュー

3D地球を読み込み中...

About Starlink 30524

Starlink 30524 (NORAD 57965) is a starlink constellation satellite (v2 mini) launched Sep 30, 2023 by SPXS of US. It operates in LEO, CIRCULAR orbit with a mass of 730.00 kg.

Starlink 30524について

説明を読み込み中...

次回通過

Passes for default location (London). Set your location on the main map for personalized predictions.

高度履歴

Loading altitude history...

軌道要素

1 57965U 23151B 26170.16797440 .00000841 00000-0 40102-4 0 9992
2 57965 43.0016 123.1371 0001171 277.1424 82.9294 15.27572779151286
Epoch: Jun 19, 2026 • Age: 7 hours

現在のステータス

高度 492.4 km
速度 7.62 km/s
衛星直下点 -34.84°S, 88.44°W
打ち上げ日 Sep 30, 2023
運用期間 2.7 years
タイプ internet

技術仕様

分類 Payload
質量 730.00 kg
乾燥質量 700.00 kg
総質量 730.00 kg
長さ 0.30 m
直径 4.10 m
スパン 29.00 m
形状 Box + pan
製造者 SPXS
バスタイプ Starlink V2M
フェーズステータス In Orbit
所有者/国 SPXS/US

Most Searched